Retour au catalogue

STARLINK-2336

ActifCommunicationsVLEO
NORAD 47879·PAYLOAD·🇺🇸 United States

Lancé Mar 14, 2021 depuis Cape Canaveral Space Force Station

Loading…

Prochains Passages (prochaines 24 heures)

TLE

FraisSource: CelesTrak SupGP

Époque: Sep 14, 2026, 21:28 UTC

1 47879C 21021V   26257.89493056  .02645200  00000+0  10336-2 0  2577
2 47879  53.1356  73.5672 0011468 291.1159 277.1787 16.22935219    18

Suivez STARLINK-2336 en temps réel avec AllMySat

Download on the App Store